GW0664 Weather Reports


time (UTC)temp
C
wind
direction
speed
KPH
gust
KPH
rain 1hr
cm
rain 24hr
cm
rain mn
cm
humidity
%
barometer
mb
20260503020046 17 345 4.8 16.1 0.00 0.00 0.00 36 1015.2
20260503014543 18 199 6.4 9.7 0.00 0.00 0.00 35 1015.2
20260503013043 18 221 8.0 12.9 0.00 0.00 0.00 34 1015.2
20260503011600 18 345 3.2 11.3 0.00 0.00 0.00 34 1015.2
20260503010050 18 345 4.8 12.9 0.00 0.00 0.00 35 1015.3
20260503004545 18 161 3.2 12.9 0.00 0.00 0.00 34 1015.3
20260503003105 18 345 11.3 20.9 0.00 0.00 0.00 36 1015.4
20260503001545 18 345 11.3 20.9 0.00 0.00 0.00 35 1015.5
20260503000056 18 91 14.5 22.5 0.00 0.00 0.00 33 1015.8
20260502234543 18 345 6.4 12.9 0.00 0.00 0.00 34 1015.8
20260502233047 18 96 9.7 14.5 0.00 0.00 0.00 35 1015.9
20260502231545 18 345 6.4 11.3 0.00 0.00 0.00 34 1016.0
20260502230041 18 96 8.0 16.1 0.00 0.00 0.00 34 1016.0
20260502224538 18 345 8.0 14.5 0.00 0.00 0.00 34 1016.2
20260502223037 18 97 3.2 17.7 0.00 0.00 0.00 33 1016.5
20260502221541 19 345 16.1 19.3 0.00 0.00 0.00 32 1016.8
20260502220040 19 345 6.4 16.1 0.00 0.00 0.00 33 1016.8
20260502214538 18 345 12.9 19.3 0.00 0.00 0.00 34 1017.0
20260502213037 18 345 9.7 20.9 0.00 0.00 0.00 33 1017.2
20260502211550 18 207 4.8 12.9 0.00 0.00 0.00 34 1017.5
20260502210040 17 0 3.2 12.9 0.00 0.00 0.00 35 1017.9
20260502204538 18 345 11.3 19.3 0.00 0.00 0.00 35 1018.0
20260502203038 19 0 1.6 12.9 0.00 0.00 0.00 34 1018.1
20260502201545 17 0 1.6 8.0 0.00 0.00 0.00 36 1018.2
20260502200046 17 345 8.0 17.7 0.00 0.00 0.00 38 1018.2
20260502194538 17 345 6.4 16.1 0.00 0.00 0.00 36 1018.3
20260502193039 17 345 4.8 19.3 0.00 0.00 0.00 37 1018.4
20260502191538 18 345 1.6 12.9 0.00 0.00 0.00 37 1018.7
20260502190045 16 172 6.4 12.9 0.00 0.00 0.00 39 1019.1
20260502184548 16 0 6.4 17.7 0.00 0.00 0.00 41 1019.3
20260502183049 16 345 1.6 14.5 0.00 0.00 0.00 40 1019.4
20260502181544 16 345 11.3 20.9 0.00 0.00 0.00 40 1019.4
20260502163047 14 345 6.4 20.9 0.00 0.00 0.00 46 1020.1
20260502161539 14 345 8.0 20.9 0.00 0.00 0.00 46 1020.2
20260502151547 11 345 12.9 19.3 0.00 0.00 0.00 55 1020.2
20260502123048 7 345 24.1 32.2 0.00 0.00 0.00 63 1018.9
20260502121546 7 345 25.7 32.2 0.00 0.00 0.00 62 1018.8
20260502114545 7 345 25.7 32.2 0.00 0.00 0.00 61 1018.5
20260502113042 7 345 22.5 32.2 0.00 0.00 0.00 60 1018.2
20260502111547 7 85 24.1 30.6 0.00 0.00 0.00 59 1018.1
20260502110051 8 345 22.5 29.0 0.00 0.00 0.00 58 1017.6
20260502104538 8 26 16.1 20.9 0.00 0.00 0.00 57 1017.6
20260502103048 8 345 17.7 27.4 0.00 0.00 0.00 57 1017.3
20260502101547 8 345 19.3 25.7 0.00 0.00 0.00 55 1016.6
20260502070050 9 345 8.0 12.9 0.00 0.00 0.00 45 1015.7
20260502064546 9 345 6.4 12.9 0.00 0.00 0.00 44 1015.7
20260502063101 10 345 6.4 8.0 0.00 0.00 0.00 41 1015.7
20260502061550 11 345 8.0 9.7 0.00 0.00 0.00 40 1015.6
20260502060041 12 345 6.4 12.9 0.00 0.00 0.00 39 1015.6
20260502054548 12 345 8.0 12.9 0.00 0.00 0.00 38 1015.6
20260502053055 11 345 6.4 12.9 0.00 0.00 0.00 39 1015.6
20260502051548 10 345 9.7 19.3 0.00 0.00 0.00 41 1015.6
20260502050048 12 345 6.4 9.7 0.00 0.00 0.00 36 1015.4
20260502044548 12 345 9.7 16.1 0.00 0.00 0.00 36 1015.4
20260502043054 13 345 8.0 9.7 0.00 0.00 0.00 34 1015.2
20260502041554 14 345 11.3 16.1 0.00 0.00 0.00 33 1015.1
20260502040053 13 345 3.2 9.7 0.00 0.00 0.00 32 1015.1
20260502034549 15 345 8.0 17.7 0.00 0.00 0.00 31 1015.1
20260502033043 15 345 16.1 20.9 0.00 0.00 0.00 29 1015.1
20260502031539 15 345 16.1 20.9 0.00 0.00 0.00 28 1015.0
20260502030050 16 345 12.9 22.5 0.00 0.00 0.00 26 1014.9
20260502024546 17 345 19.3 25.7 0.00 0.00 0.00 25 1014.8
20260502023045 18 345 19.3 25.7 0.00 0.00 0.00 23 1014.6
20260502021543 20 345 17.7 29.0 0.00 0.00 0.00 21 1014.5